Private Wetterstation Wechselburg
Wetterdaten: Mittwoch, 20.04.2011
Datum Zeit Temp. +2m Bodentemp. Temp.+5cm Temp. Wind Windchill X Diff Temp. Feuchte +2m Feuchte +5cm Sonnenschein Luftdruck Regen Wind Richtung Richtung Sonnenschein UV Taupunkt Windchill Windben
20.04.2011 00:00 10,2 C 15,3 C 8,5 C 9,0 C 6,5 C 0,0 C 73 % 80 % 0 % 1018,2 hPa 0,0 l/m 0,0 km/h (0 Bft) O-NO 67 0 min 0,0 UV-I 5,6 C 6,5 C 0,0 km/h (0 Bft)
20.04.2011 00:10 10,1 C 15,3 C 8,5 C 8,9 C 6,6 C 0,0 C 74 % 80 % 0 % 1018,2 hPa 0,0 l/m 0,0 km/h (0 Bft) N 0 0 min 0,0 UV-I 5,7 C 6,6 C 0,0 km/h (0 Bft)
20.04.2011 00:15 10,0 C 15,3 C 8,2 C 8,8 C 6,4 C 0,0 C 74 % 80 % 0 % 1018,1 hPa 0,0 l/m 0,0 km/h (0 Bft) N-NO 22 0 min 0,0 UV-I 5,6 C 6,4 C 0,0 km/h (0 Bft)
20.04.2011 00:20 10,0 C 15,2 C 8,1 C 8,8 C 6,3 C 0,0 C 75 % 81 % 0 % 1018,1 hPa 0,0 l/m 0,0 km/h (0 Bft) SW 225 0 min 0,0 UV-I 5,8 C 6,3 C 0,0 km/h (0 Bft)
20.04.2011 00:25 10,0 C 15,1 C 8,1 C 8,7 C 6,1 C 0,0 C 75 % 82 % 0 % 1018,1 hPa 0,0 l/m 0,0 km/h (0 Bft) NW 315 0 min 0,0 UV-I 5,8 C 6,1 C 0,0 km/h (0 Bft)
20.04.2011 00:30 9,9 C 15,1 C 7,9 C 8,6 C 6,0 C 0,0 C 75 % 82 % 0 % 1018,1 hPa 0,0 l/m 0,0 km/h (0 Bft) W 270 0 min 0,0 UV-I 5,7 C 6,0 C 0,0 km/h (0 Bft)
20.04.2011 00:35 9,6 C 15,2 C 7,9 C 8,4 C 5,9 C 0,0 C 75 % 82 % 0 % 1018,2 hPa 0,0 l/m 0,0 km/h (0 Bft) N-NW 337 0 min 0,0 UV-I 5,4 C 5,9 C 0,0 km/h (0 Bft)
20.04.2011 00:40 9,5 C 15,2 C 7,9 C 8,3 C 5,9 C 0,0 C 75 % 82 % 0 % 1018,2 hPa 0,0 l/m 0,0 km/h (0 Bft) N-NW 337 0 min 0,0 UV-I 5,3 C 5,9 C 0,0 km/h (0 Bft)
20.04.2011 00:45 9,3 C 15,2 C 7,7 C 8,1 C 5,8 C 0,0 C 76 % 82 % 0 % 1018,2 hPa 0,0 l/m 0,0 km/h (0 Bft) N-NW 337 0 min 0,0 UV-I 5,3 C 5,8 C 0,0 km/h (0 Bft)
20.04.2011 00:50 9,3 C 15,1 C 7,7 C 8,1 C 5,7 C 0,0 C 76 % 82 % 0 % 1018,2 hPa 0,0 l/m 0,0 km/h (0 Bft) N-NW 337 0 min 0,0 UV-I 5,3 C 5,7 C 0,0 km/h (0 Bft)
20.04.2011 00:55 9,2 C 15,2 C 7,6 C 8,0 C 5,6 C 0,0 C 76 % 82 % 0 % 1018,2 hPa 0,0 l/m 0,0 km/h (0 Bft) N-NW 337 0 min 0,0 UV-I 5,2 C 5,6 C 0,0 km/h (0 Bft)
20.04.2011 01:00 9,2 C 15,1 C 7,6 C 8,0 C 5,6 C 0,0 C 77 % 82 % 0 % 1018,2 hPa 0,0 l/m 0,0 km/h (0 Bft) N-NW 337 0 min 0,0 UV-I 5,4 C 5,6 C 0,0 km/h (0 Bft)
20.04.2011 01:10 9,2 C 15,1 C 7,4 C 7,9 C 5,4 C 0,0 C 77 % 83 % 0 % 1018,2 hPa 0,0 l/m 0,0 km/h (0 Bft) N 0 0 min 0,0 UV-I 5,4 C 5,4 C 0,0 km/h (0 Bft)
20.04.2011 01:15 9,1 C 15,1 C 7,5 C 7,9 C 5,5 C 0,0 C 77 % 83 % 0 % 1017,9 hPa 0,0 l/m 0,0 km/h (0 Bft) N-NW 337 0 min 0,0 UV-I 5,3 C 5,5 C 0,0 km/h (0 Bft)
20.04.2011 01:20 8,8 C 15,1 C 7,3 C 7,7 C 5,6 C 0,0 C 77 % 83 % 0 % 1017,9 hPa 0,0 l/m 0,6 km/h (0 Bft) NO 45 0 min 0,0 UV-I 5,0 C 5,6 C 0,0 km/h (0 Bft)
20.04.2011 01:25 8,8 C 15,0 C 7,2 C 7,7 C 5,6 C 0,0 C 78 % 84 % 0 % 1017,9 hPa 0,0 l/m 1,1 km/h (1 Bft) N-NW 337 0 min 0,0 UV-I 5,2 C 5,6 C 4,8 km/h (1 Bft)
20.04.2011 01:30 8,8 C 15,0 C 7,0 C 7,7 C 5,4 C 0,0 C 78 % 84 % 0 % 1017,9 hPa 0,0 l/m 0,6 km/h (0 Bft) SW 225 0 min 0,0 UV-I 5,2 C 5,4 C 1,9 km/h (1 Bft)
20.04.2011 01:35 8,7 C 15,0 C 6,9 C 7,6 C 5,3 C 0,0 C 77 % 84 % 0 % 1018,2 hPa 0,0 l/m 0,3 km/h (0 Bft) N-NW 337 0 min 0,0 UV-I 4,9 C 5,3 C 0,0 km/h (0 Bft)
20.04.2011 01:40 8,7 C 15,0 C 7,0 C 7,6 C 5,3 C 0,0 C 78 % 84 % 0 % 1018,2 hPa 0,0 l/m 0,3 km/h (0 Bft) N 360 0 min 0,0 UV-I 5,1 C 5,3 C 0,0 km/h (0 Bft)
20.04.2011 01:45 8,6 C 14,9 C 6,9 C 7,5 C 5,2 C 0,0 C 78 % 84 % 0 % 1018,2 hPa 0,0 l/m 0,0 km/h (0 Bft) W 270 0 min 0,0 UV-I 5,0 C 5,2 C 0,0 km/h (0 Bft)
20.04.2011 01:50 8,6 C 14,9 C 6,9 C 7,4 C 5,1 C 0,0 C 78 % 84 % 0 % 1018,2 hPa 0,0 l/m 0,0 km/h (0 Bft) W 270 0 min 0,0 UV-I 5,0 C 5,1 C 0,0 km/h (0 Bft)
20.04.2011 01:55 8,5 C 14,9 C 6,7 C 7,3 C 5,0 C 0,0 C 78 % 85 % 0 % 1018,3 hPa 0,0 l/m 0,0 km/h (0 Bft) W 270 0 min 0,0 UV-I 4,9 C 5,0 C 0,0 km/h (0 Bft)
20.04.2011 02:00 8,4 C 14,9 C 6,7 C 7,2 C 4,9 C 0,0 C 78 % 85 % 0 % 1018,3 hPa 0,0 l/m 0,0 km/h (0 Bft) W 270 0 min 0,0 UV-I 4,8 C 4,9 C 0,0 km/h (0 Bft)
20.04.2011 02:10 8,1 C 14,9 C 6,5 C 7,0 C 4,9 C 0,0 C 78 % 85 % 0 % 1018,3 hPa 0,0 l/m 0,0 km/h (0 Bft) N 0 0 min 0,0 UV-I 4,5 C 4,9 C 0,0 km/h (0 Bft)
20.04.2011 02:15 8,0 C 14,9 C 6,5 C 7,0 C 5,0 C 0,0 C 79 % 85 % 0 % 1018,5 hPa 0,0 l/m 0,0 km/h (0 Bft) NO 45 0 min 0,0 UV-I 4,6 C 5,0 C 0,0 km/h (0 Bft)
20.04.2011 02:20 8,0 C 14,8 C 6,5 C 7,0 C 5,1 C 0,0 C 79 % 85 % 0 % 1018,5 hPa 0,0 l/m 0,0 km/h (0 Bft) NO 45 0 min 0,0 UV-I 4,6 C 5,1 C 0,0 km/h (0 Bft)
20.04.2011 02:25 8,0 C 14,8 C 6,4 C 6,9 C 4,8 C 0,0 C 79 % 85 % 0 % 1018,5 hPa 0,0 l/m 0,0 km/h (0 Bft) NO 45 0 min 0,0 UV-I 4,6 C 4,8 C 0,0 km/h (0 Bft)
20.04.2011 02:30 8,1 C 14,8 C 6,5 C 6,9 C 4,6 C 0,0 C 79 % 85 % 0 % 1018,5 hPa 0,0 l/m 0,0 km/h (0 Bft) N-NO 22 0 min 0,0 UV-I 4,7 C 4,6 C 0,0 km/h (0 Bft)
20.04.2011 02:35 8,0 C 14,7 C 6,2 C 6,8 C 4,5 C 0,0 C 79 % 85 % 0 % 1018,2 hPa 0,0 l/m 0,0 km/h (0 Bft) SW 225 0 min 0,0 UV-I 4,6 C 4,5 C 0,0 km/h (0 Bft)
20.04.2011 02:40 7,9 C 14,7 C 6,3 C 6,8 C 4,5 C 0,0 C 79 % 85 % 0 % 1018,2 hPa 0,0 l/m 0,0 km/h (0 Bft) S-SW 202 0 min 0,0 UV-I 4,5 C 4,5 C 0,0 km/h (0 Bft)
20.04.2011 02:45 7,7 C 14,7 C 6,1 C 6,6 C 4,5 C 0,0 C 79 % 85 % 0 % 1018,2 hPa 0,0 l/m 0,0 km/h (0 Bft) SW 225 0 min 0,0 UV-I 4,3 C 4,5 C 0,0 km/h (0 Bft)
20.04.2011 02:50 7,7 C 14,7 C 6,0 C 6,6 C 4,4 C 0,0 C 80 % 85 % 0 % 1018,2 hPa 0,0 l/m 0,2 km/h (0 Bft) SW 225 0 min 0,0 UV-I 4,5 C 4,4 C 0,0 km/h (0 Bft)
20.04.2011 02:55 7,7 C 14,7 C 6,0 C 6,6 C 4,3 C 0,0 C 79 % 86 % 0 % 1018,1 hPa 0,0 l/m 0,2 km/h (0 Bft) SW 225 0 min 0,0 UV-I 4,3 C 4,3 C 0,0 km/h (0 Bft)
20.04.2011 03:00 7,6 C 14,7 C 6,1 C 6,4 C 4,1 C 0,0 C 80 % 85 % 0 % 1018,1 hPa 0,0 l/m 0,0 km/h (0 Bft) SW 225 0 min 0,0 UV-I 4,4 C 4,1 C 0,0 km/h (0 Bft)
20.04.2011 03:10 7,5 C 14,7 C 5,9 C 6,3 C 3,9 C 0,0 C 80 % 86 % 0 % 1018,1 hPa 0,0 l/m 0,0 km/h (0 Bft) N 0 0 min 0,0 UV-I 4,3 C 3,9 C 0,0 km/h (0 Bft)
20.04.2011 03:15 7,3 C 14,7 C 5,8 C 6,2 C 4,0 C 0,0 C 79 % 86 % 0 % 1017,9 hPa 0,0 l/m 0,0 km/h (0 Bft) SO 135 0 min 0,0 UV-I 3,9 C 4,0 C 0,0 km/h (0 Bft)
20.04.2011 03:20 7,3 C 14,7 C 5,9 C 6,2 C 4,0 C 0,0 C 80 % 86 % 0 % 1017,9 hPa 0,0 l/m 0,0 km/h (0 Bft) SO 135 0 min 0,0 UV-I 4,1 C 4,0 C 0,0 km/h (0 Bft)
20.04.2011 03:25 7,3 C 14,7 C 5,7 C 6,1 C 3,8 C 0,0 C 80 % 86 % 0 % 1017,9 hPa 0,0 l/m 0,0 km/h (0 Bft) SO 135 0 min 0,0 UV-I 4,1 C 3,8 C 0,0 km/h (0 Bft)
20.04.2011 03:30 7,2 C 14,6 C 5,6 C 6,1 C 3,8 C 0,0 C 80 % 85 % 0 % 1017,9 hPa 0,0 l/m 0,0 km/h (0 Bft) SO 135 0 min 0,0 UV-I 4,0 C 3,8 C 0,0 km/h (0 Bft)
20.04.2011 03:35 7,2 C 14,6 C 5,6 C 6,1 C 3,9 C 0,0 C 81 % 86 % 0 % 1017,9 hPa 0,0 l/m 0,0 km/h (0 Bft) S-SO 157 0 min 0,0 UV-I 4,2 C 3,9 C 0,0 km/h (0 Bft)
20.04.2011 03:40 7,2 C 14,6 C 5,6 C 6,1 C 3,8 C 0,0 C 80 % 86 % 0 % 1017,9 hPa 0,0 l/m 0,0 km/h (0 Bft) S-SO 157 0 min 0,0 UV-I 4,0 C 3,8 C 0,0 km/h (0 Bft)
20.04.2011 03:45 7,2 C 14,6 C 5,6 C 6,1 C 3,8 C 0,0 C 80 % 86 % 0 % 1017,9 hPa 0,0 l/m 0,0 km/h (0 Bft) O-NO 67 0 min 0,0 UV-I 4,0 C 3,8 C 0,0 km/h (0 Bft)
20.04.2011 03:50 7,1 C 14,5 C 5,6 C 6,0 C 3,7 C 0,0 C 80 % 86 % 0 % 1017,9 hPa 0,0 l/m 0,0 km/h (0 Bft) O-NO 67 0 min 0,0 UV-I 3,9 C 3,7 C 0,0 km/h (0 Bft)
20.04.2011 03:55 7,1 C 14,5 C 5,7 C 6,0 C 3,7 C 0,0 C 81 % 86 % 0 % 1017,7 hPa 0,0 l/m 0,0 km/h (0 Bft) O-NO 67 0 min 0,0 UV-I 4,1 C 3,7 C 0,0 km/h (0 Bft)
20.04.2011 04:00 7,0 C 14,5 C 5,6 C 5,9 C 3,7 C 0,0 C 81 % 86 % 0 % 1017,7 hPa 0,0 l/m 0,0 km/h (0 Bft) O-NO 67 0 min 0,0 UV-I 4,0 C 3,7 C 0,0 km/h (0 Bft)
20.04.2011 04:10 7,0 C 14,5 C 5,6 C 5,9 C 3,8 C 0,0 C 80 % 86 % 0 % 1017,7 hPa 0,0 l/m 0,0 km/h (0 Bft) N 0 0 min 0,0 UV-I 3,8 C 3,8 C 0,0 km/h (0 Bft)
20.04.2011 04:15 6,9 C 14,4 C 5,5 C 5,9 C 3,9 C 0,0 C 81 % 86 % 0 % 1018,1 hPa 0,0 l/m 0,0 km/h (0 Bft) O-NO 67 0 min 0,0 UV-I 3,9 C 3,9 C 0,0 km/h (0 Bft)
20.04.2011 04:20 6,8 C 14,4 C 5,5 C 5,8 C 3,9 C 0,0 C 81 % 86 % 0 % 1018,1 hPa 0,0 l/m 0,0 km/h (0 Bft) O-NO 67 0 min 0,0 UV-I 3,8 C 3,9 C 0,0 km/h (0 Bft)
20.04.2011 04:25 6,9 C 14,4 C 5,4 C 5,9 C 3,8 C 0,0 C 81 % 86 % 0 % 1018,1 hPa 0,0 l/m 0,0 km/h (0 Bft) O-NO 67 0 min 0,0 UV-I 3,9 C 3,8 C 0,0 km/h (0 Bft)
20.04.2011 04:30 6,8 C 14,4 C 5,4 C 5,8 C 3,7 C 0,0 C 81 % 86 % 0 % 1018,1 hPa 0,0 l/m 0,0 km/h (0 Bft) O-NO 67 0 min 0,0 UV-I 3,8 C 3,7 C 0,0 km/h (0 Bft)
20.04.2011 04:35 6,8 C 14,3 C 5,5 C 5,7 C 3,6 C 0,0 C 81 % 86 % 0 % 1018,0 hPa 0,0 l/m 0,0 km/h (0 Bft) O-NO 67 0 min 0,0 UV-I 3,8 C 3,6 C 0,0 km/h (0 Bft)
20.04.2011 04:40 6,8 C 14,3 C 5,4 C 5,7 C 3,6 C 0,0 C 81 % 86 % 0 % 1018,0 hPa 0,0 l/m 0,0 km/h (0 Bft) O-NO 67 0 min 0,0 UV-I 3,8 C 3,6 C 0,0 km/h (0 Bft)
20.04.2011 04:45 6,9 C 14,3 C 5,3 C 5,8 C 3,6 C 0,0 C 81 % 86 % 0 % 1018,0 hPa 0,0 l/m 0,0 km/h (0 Bft) O-NO 67 0 min 0,0 UV-I 3,9 C 3,6 C 0,0 km/h (0 Bft)
20.04.2011 04:50 6,8 C 14,3 C 5,3 C 5,8 C 3,8 C 0,0 C 81 % 86 % 0 % 1018,0 hPa 0,0 l/m 0,0 km/h (0 Bft) O-NO 67 0 min 0,0 UV-I 3,8 C 3,8 C 0,0 km/h (0 Bft)
20.04.2011 04:55 6,7 C 14,3 C 5,2 C 5,7 C 3,8 C 0,0 C 81 % 86 % 0 % 1018,4 hPa 0,0 l/m 0,0 km/h (0 Bft) O-NO 67 0 min 0,0 UV-I 3,7 C 3,8 C 0,0 km/h (0 Bft)
20.04.2011 05:00 6,6 C 14,3 C 5,3 C 5,7 C 3,8 C 0,0 C 81 % 86 % 0 % 1018,4 hPa 0,0 l/m 0,0 km/h (0 Bft) O-NO 67 0 min 0,0 UV-I 3,6 C 3,8 C 0,0 km/h (0 Bft)
20.04.2011 05:10 6,7 C 14,2 C 5,3 C 5,7 C 3,8 C 0,0 C 82 % 86 % 0 % 1018,4 hPa 0,0 l/m 0,0 km/h (0 Bft) N 0 0 min 0,0 UV-I 3,8 C 3,8 C 0,0 km/h (0 Bft)
20.04.2011 05:15 6,7 C 14,2 C 5,3 C 5,7 C 3,8 C 0,0 C 82 % 87 % 0 % 1017,8 hPa 0,0 l/m 0,0 km/h (0 Bft) O-NO 67 0 min 0,0 UV-I 3,8 C 3,8 C 0,0 km/h (0 Bft)
20.04.2011 05:20 6,7 C 14,2 C 5,2 C 5,7 C 3,8 C 0,0 C 82 % 87 % 0 % 1017,8 hPa 0,0 l/m 0,0 km/h (0 Bft) O-SO 112 0 min 0,0 UV-I 3,8 C 3,8 C 0,0 km/h (0 Bft)
20.04.2011 05:25 6,7 C 14,1 C 5,3 C 5,7 C 3,8 C 0,0 C 82 % 86 % 0 % 1017,8 hPa 0,0 l/m 0,0 km/h (0 Bft) O-SO 112 0 min 0,0 UV-I 3,8 C 3,8 C 0,0 km/h (0 Bft)
20.04.2011 05:30 6,7 C 14,1 C 5,3 C 5,7 C 3,8 C 0,0 C 82 % 87 % 0 % 1017,8 hPa 0,0 l/m 0,0 km/h (0 Bft) N 360 0 min 0,0 UV-I 3,8 C 3,8 C 0,0 km/h (0 Bft)
20.04.2011 05:35 6,5 C 14,1 C 5,2 C 5,6 C 3,8 C 0,0 C 82 % 87 % 0 % 1018,1 hPa 0,0 l/m 0,0 km/h (0 Bft) N-NO 22 0 min 0,0 UV-I 3,7 C 3,8 C 0,0 km/h (0 Bft)
20.04.2011 05:40 6,5 C 14,1 C 5,2 C 5,6 C 3,9 C 0,0 C 82 % 87 % 0 % 1018,1 hPa 0,0 l/m 0,0 km/h (0 Bft) O-NO 67 0 min 0,0 UV-I 3,7 C 3,9 C 0,0 km/h (0 Bft)
20.04.2011 05:45 6,6 C 14,1 C 5,2 C 5,7 C 3,8 C 0,0 C 82 % 87 % 0 % 1018,1 hPa 0,0 l/m 0,0 km/h (0 Bft) O-NO 67 0 min 0,0 UV-I 3,8 C 3,8 C 0,0 km/h (0 Bft)
20.04.2011 05:50 6,7 C 13,9 C 5,2 C 5,7 C 3,8 C 0,0 C 82 % 87 % 0 % 1018,1 hPa 0,0 l/m 0,0 km/h (0 Bft) N-NO 22 0 min 0,0 UV-I 3,8 C 3,8 C 0,0 km/h (0 Bft)
20.04.2011 05:55 6,5 C 13,9 C 5,2 C 5,6 C 3,8 C 0,0 C 82 % 87 % 0 % 1018,1 hPa 0,0 l/m 0,0 km/h (0 Bft) NO 45 0 min 0,0 UV-I 3,7 C 3,8 C 0,0 km/h (0 Bft)
20.04.2011 06:00 6,5 C 13,9 C 5,2 C 5,6 C 3,8 C 0,0 C 82 % 87 % 0 % 1018,1 hPa 0,0 l/m 0,0 km/h (0 Bft) NW 315 0 min 0,0 UV-I 3,7 C 3,8 C 0,0 km/h (0 Bft)
20.04.2011 06:10 6,5 C 13,9 C 5,2 C 5,7 C 4,2 C 0,0 C 82 % 87 % 0 % 1018,1 hPa 0,0 l/m 0,0 km/h (0 Bft) N 0 0 min 0,0 UV-I 3,7 C 4,2 C 0,0 km/h (0 Bft)
20.04.2011 06:15 6,5 C 13,8 C 5,1 C 5,7 C 4,1 C 0,0 C 82 % 87 % 0 % 1017,9 hPa 0,0 l/m 0,0 km/h (0 Bft) SW 225 0 min 0,0 UV-I 3,7 C 4,1 C 0,0 km/h (0 Bft)
20.04.2011 06:20 6,5 C 13,8 C 5,1 C 5,7 C 4,0 C 0,0 C 82 % 87 % 0 % 1017,9 hPa 0,0 l/m 0,0 km/h (0 Bft) SW 225 0 min 0,0 UV-I 3,7 C 4,0 C 0,0 km/h (0 Bft)
20.04.2011 06:25 6,5 C 13,8 C 5,1 C 5,7 C 4,2 C 0,0 C 82 % 87 % 0 % 1017,9 hPa 0,0 l/m 0,0 km/h (0 Bft) SW 225 0 min 0,0 UV-I 3,7 C 4,2 C 0,0 km/h (0 Bft)
20.04.2011 06:30 6,5 C 13,8 C 5,3 C 5,7 C 4,2 C 0,0 C 83 % 88 % 0 % 1017,9 hPa 0,0 l/m 0,0 km/h (0 Bft) W 270 0 min 0,0 UV-I 3,8 C 4,2 C 0,0 km/h (0 Bft)
20.04.2011 06:35 6,9 C 13,8 C 5,2 C 6,1 C 4,4 C 0,0 C 82 % 88 % 0 % 1018,2 hPa 0,0 l/m 0,0 km/h (0 Bft) S 180 0 min 0,0 UV-I 4,0 C 4,4 C 0,0 km/h (0 Bft)
20.04.2011 06:40 7,7 C 13,8 C 5,3 C 6,6 C 4,5 C 0,0 C 82 % 88 % 0 % 1018,2 hPa 0,0 l/m 0,0 km/h (0 Bft) S 180 0 min 0,0 UV-I 4,8 C 4,5 C 0,0 km/h (0 Bft)
20.04.2011 06:45 8,8 C 13,8 C 5,4 C 7,4 C 4,7 C 0,0 C 79 % 88 % 0 % 1018,2 hPa 0,0 l/m 0,0 km/h (0 Bft) S 180 0 min 0,0 UV-I 5,4 C 4,7 C 0,0 km/h (0 Bft)
20.04.2011 06:50 9,5 C 13,7 C 5,3 C 7,9 C 4,8 C 0,0 C 77 % 88 % 0 % 1018,2 hPa 0,0 l/m 0,0 km/h (0 Bft) S 180 0 min 0,0 UV-I 5,7 C 4,8 C 0,0 km/h (0 Bft)
20.04.2011 06:55 10,3 C 13,7 C 5,5 C 8,7 C 5,4 C 0,0 C 75 % 88 % 0 % 1018,5 hPa 0,0 l/m 0,0 km/h (0 Bft) W-SW 247 0 min 0,0 UV-I 6,1 C 5,4 C 0,0 km/h (0 Bft)
20.04.2011 07:00 10,7 C 13,7 C 5,5 C 9,2 C 6,1 C 0,0 C 73 % 88 % 0 % 1018,5 hPa 0,0 l/m 0,0 km/h (0 Bft) W-SW 247 0 min 0,0 UV-I 6,1 C 6,1 C 0,0 km/h (0 Bft)
20.04.2011 07:10 12,0 C 13,6 C 5,9 C 10,6 C 7,9 C 0,0 C 70 % 88 % 0 % 1018,5 hPa 0,0 l/m 0,0 km/h (0 Bft) N 0 0 min 0,0 UV-I 6,7 C 7,9 C 0,0 km/h (0 Bft)
20.04.2011 07:15 12,9 C 13,6 C 6,0 C 11,6 C 9,1 C 0,0 C 68 % 88 % 0 % 1018,2 hPa 0,0 l/m 0,2 km/h (0 Bft) O-NO 67 0 min 0,0 UV-I 7,1 C 9,1 C 0,0 km/h (0 Bft)
20.04.2011 07:20 13,5 C 13,6 C 6,2 C 12,3 C 9,8 C 0,0 C 67 % 89 % 0 % 1018,2 hPa 0,0 l/m 0,2 km/h (0 Bft) O-NO 67 0 min 0,0 UV-I 7,5 C 9,8 C 0,0 km/h (0 Bft)
20.04.2011 07:25 14,3 C 13,5 C 6,2 C 13,3 C 11,3 C 0,0 C 64 % 88 % 0 % 1018,2 hPa 0,0 l/m 0,0 km/h (0 Bft) O-NO 67 0 min 0,0 UV-I 7,6 C 11,3 C 0,0 km/h (0 Bft)
20.04.2011 07:30 14,7 C 13,5 C 6,3 C 13,8 C 12,1 C 0,0 C 63 % 88 % 0 % 1018,2 hPa 0,0 l/m 0,0 km/h (0 Bft) O-NO 67 0 min 0,0 UV-I 7,7 C 12,1 C 0,0 km/h (0 Bft)
20.04.2011 07:35 13,9 C 13,3 C 6,7 C 13,7 C 13,4 C 0,0 C 63 % 88 % 0 % 1018,3 hPa 0,0 l/m 0,0 km/h (0 Bft) O-NO 67 0 min 0,0 UV-I 7,0 C 13,4 C 0,0 km/h (0 Bft)
20.04.2011 07:40 14,0 C 13,2 C 6,9 C 14,0 C 13,9 C 0,0 C 63 % 88 % 0 % 1018,3 hPa 0,0 l/m 0,0 km/h (0 Bft) SO 135 0 min 0,0 UV-I 7,1 C 13,9 C 0,0 km/h (0 Bft)
20.04.2011 07:45 14,9 C 13,2 C 7,5 C 14,8 C 14,7 C 0,0 C 62 % 87 % 0 % 1018,3 hPa 0,0 l/m 0,0 km/h (0 Bft) SO 135 0 min 0,0 UV-I 7,7 C 14,7 C 0,0 km/h (0 Bft)
20.04.2011 07:50 14,6 C 13,1 C 7,7 C 14,7 C 14,7 C 0,1 C 62 % 87 % 3 % 1018,3 hPa 0,0 l/m 0,0 km/h (0 Bft) SO 135 0 min 0,0 UV-I 7,4 C 14,7 C 0,0 km/h (0 Bft)
20.04.2011 07:55 14,7 C 13,1 C 7,7 C 15,2 C 15,2 C 0,5 C 61 % 87 % 13 % 1018,6 hPa 0,0 l/m 0,0 km/h (0 Bft) SO 135 0 min 0,1 UV-I 7,3 C 15,2 C 0,0 km/h (0 Bft)
20.04.2011 08:00 14,7 C 13,1 C 7,9 C 16,0 C 16,0 C 1,3 C 61 % 87 % 34 % 1018,6 hPa 0,0 l/m 0,0 km/h (0 Bft) SO 135 0 min 0,1 UV-I 7,3 C 16,0 C 0,0 km/h (0 Bft)
20.04.2011 08:10 14,3 C 13,0 C 7,9 C 16,4 C 16,4 C 2,1 C 62 % 86 % 55 % 1018,6 hPa 0,0 l/m 0,5 km/h (0 Bft) N 0 0 min 0,1 UV-I 7,1 C 16,4 C 1,6 km/h (1 Bft)
20.04.2011 08:15 15,3 C 13,0 C 8,1 C 16,5 C 16,5 C 1,2 C 60 % 86 % 32 % 1018,4 hPa 0,0 l/m 1,1 km/h (1 Bft) SO 135 0 min 0,2 UV-I 7,6 C 16,5 C 0,0 km/h (0 Bft)
20.04.2011 08:20 14,8 C 13,0 C 8,5 C 17,1 C 17,1 C 2,3 C 60 % 85 % 61 % 1018,4 hPa 0,0 l/m 1,0 km/h (0 Bft) SO 135 0 min 0,2 UV-I 7,1 C 17,1 C 0,0 km/h (0 Bft)
20.04.2011 08:25 13,6 C 13,0 C 8,9 C 17,9 C 17,9 C 4,3 C 63 % 84 % 100 % 1018,4 hPa 0,0 l/m 0,0 km/h (0 Bft) SO 135 5 min 0,2 UV-I 6,7 C 17,9 C 0,0 km/h (0 Bft)
20.04.2011 08:30 13,5 C 13,0 C 9,1 C 18,9 C 18,9 C 5,4 C 63 % 84 % 100 % 1018,4 hPa 0,0 l/m 0,0 km/h (0 Bft) SO 135 5 min 0,2 UV-I 6,6 C 18,9 C 0,0 km/h (0 Bft)
20.04.2011 08:35 13,3 C 13,0 C 9,5 C 19,3 C 19,3 C 6,0 C 64 % 84 % 100 % 1018,7 hPa 0,0 l/m 0,0 km/h (0 Bft) SO 135 5 min 0,3 UV-I 6,6 C 19,3 C 0,0 km/h (0 Bft)
20.04.2011 08:40 13,2 C 13,0 C 9,5 C 19,6 C 19,6 C 6,4 C 64 % 83 % 100 % 1018,7 hPa 0,0 l/m 0,0 km/h (0 Bft) SO 135 5 min 0,3 UV-I 6,5 C 19,6 C 0,0 km/h (0 Bft)
20.04.2011 08:45 13,3 C 13,0 C 10,1 C 19,7 C 19,7 C 6,4 C 65 % 82 % 100 % 1018,7 hPa 0,0 l/m 0,0 km/h (0 Bft) SO 135 5 min 0,3 UV-I 6,9 C 19,7 C 0,0 km/h (0 Bft)
20.04.2011 08:50 13,2 C 12,9 C 10,4 C 19,9 C 19,9 C 6,7 C 65 % 80 % 100 % 1018,7 hPa 0,0 l/m 0,0 km/h (0 Bft) SO 135 5 min 0,3 UV-I 6,8 C 19,9 C 0,0 km/h (0 Bft)
20.04.2011 08:55 13,2 C 12,9 C 10,7 C 20,0 C 20,0 C 6,8 C 65 % 79 % 100 % 1018,8 hPa 0,0 l/m 0,0 km/h (0 Bft) SW 225 5 min 0,4 UV-I 6,8 C 20,0 C 0,0 km/h (0 Bft)
20.04.2011 09:00 13,2 C 13,0 C 11,1 C 20,4 C 20,4 C 7,2 C 65 % 79 % 100 % 1018,8 hPa 0,0 l/m 0,0 km/h (0 Bft) SW 225 5 min 0,4 UV-I 6,8 C 20,4 C 0,0 km/h (0 Bft)
20.04.2011 09:10 13,4 C 12,9 C 11,8 C 20,2 C 20,2 C 6,8 C 66 % 76 % 100 % 1018,8 hPa 0,0 l/m 0,5 km/h (0 Bft) N 0 10 min 0,5 UV-I 7,2 C 20,2 C 2,4 km/h (1 Bft)
20.04.2011 09:15 13,5 C 13,0 C 12,3 C 20,0 C 20,0 C 6,5 C 66 % 73 % 100 % 1018,7 hPa 0,0 l/m 1,6 km/h (1 Bft) SW 225 5 min 0,6 UV-I 7,3 C 20,0 C 1,9 km/h (1 Bft)
20.04.2011 09:20 13,5 C 13,0 C 12,4 C 19,7 C 19,7 C 6,2 C 66 % 72 % 100 % 1018,7 hPa 0,0 l/m 1,9 km/h (1 Bft) S 180 5 min 0,6 UV-I 7,3 C 19,7 C 2,7 km/h (1 Bft)
20.04.2011 09:25 13,6 C 12,9 C 12,8 C 18,7 C 18,7 C 5,1 C 66 % 73 % 100 % 1018,7 hPa 0,0 l/m 1,4 km/h (1 Bft) SW 225 5 min 0,7 UV-I 7,4 C 18,7 C 2,1 km/h (1 Bft)
20.04.2011 09:30 13,7 C 12,9 C 13,4 C 18,4 C 18,4 C 4,7 C 66 % 72 % 100 % 1018,7 hPa 0,0 l/m 1,8 km/h (1 Bft) S-SW 202 5 min 0,7 UV-I 7,5 C 18,4 C 2,3 km/h (1 Bft)
20.04.2011 09:35 13,9 C 13,0 C 14,1 C 17,9 C 17,9 C 4,0 C 66 % 69 % 100 % 1018,7 hPa 0,0 l/m 2,1 km/h (1 Bft) W-SW 247 5 min 0,7 UV-I 7,7 C 17,9 C 2,6 km/h (1 Bft)
20.04.2011 09:40 13,9 C 13,0 C 14,5 C 17,7 C 17,7 C 3,8 C 66 % 69 % 100 % 1018,7 hPa 0,0 l/m 2,1 km/h (1 Bft) SW 225 5 min 0,7 UV-I 7,7 C 17,7 C 2,4 km/h (1 Bft)
20.04.2011 09:45 14,1 C 12,9 C 15,1 C 17,7 C 17,7 C 3,6 C 66 % 69 % 95 % 1018,7 hPa 0,0 l/m 2,1 km/h (1 Bft) SW 225 5 min 0,9 UV-I 7,8 C 17,7 C 3,1 km/h (1 Bft)
20.04.2011 09:50 14,1 C 12,9 C 15,2 C 18,0 C 18,0 C 3,9 C 66 % 66 % 100 % 1018,7 hPa 0,0 l/m 2,6 km/h (1 Bft) SW 225 5 min 0,9 UV-I 7,8 C 18,0 C 3,5 km/h (1 Bft)
20.04.2011 09:55 14,3 C 12,9 C 15,7 C 17,8 C 17,8 C 3,5 C 66 % 66 % 92 % 1018,5 hPa 0,0 l/m 3,1 km/h (1 Bft) SW 225 5 min 0,9 UV-I 8,0 C 17,8 C 4,3 km/h (1 Bft)
20.04.2011 10:00 14,4 C 13,0 C 16,1 C 17,8 C 17,8 C 3,4 C 65 % 64 % 89 % 1018,5 hPa 0,0 l/m 3,1 km/h (1 Bft) W-SW 247 5 min 0,9 UV-I 7,9 C 17,8 C 3,4 km/h (1 Bft)
20.04.2011 10:10 14,8 C 12,9 C 16,7 C 18,5 C 18,5 C 3,7 C 65 % 62 % 97 % 1018,5 hPa 0,0 l/m 2,3 km/h (1 Bft) N 0 10 min 0,9 UV-I 8,3 C 18,5 C 5,1 km/h (1 Bft)
20.04.2011 10:15 14,9 C 13,0 C 16,7 C 18,5 C 18,5 C 3,6 C 64 % 63 % 95 % 1018,8 hPa 0,0 l/m 1,9 km/h (1 Bft) W-SW 247 5 min 0,9 UV-I 8,2 C 18,5 C 5,3 km/h (1 Bft)
20.04.2011 10:20 15,2 C 13,0 C 16,6 C 18,9 C 18,9 C 3,7 C 64 % 63 % 97 % 1018,8 hPa 0,0 l/m 1,4 km/h (1 Bft) S 180 5 min 0,9 UV-I 8,4 C 18,9 C 2,9 km/h (1 Bft)
20.04.2011 10:25 15,5 C 13,0 C 16,4 C 19,0 C 19,0 C 3,5 C 63 % 63 % 92 % 1018,8 hPa 0,0 l/m 1,9 km/h (1 Bft) W-SW 247 5 min 1,1 UV-I 8,5 C 19,0 C 2,4 km/h (1 Bft)
20.04.2011 10:30 15,6 C 13,0 C 16,1 C 19,2 C 19,2 C 3,6 C 62 % 62 % 95 % 1018,8 hPa 0,0 l/m 1,9 km/h (1 Bft) SW 225 5 min 1,1 UV-I 8,3 C 19,2 C 0,0 km/h (0 Bft)
20.04.2011 10:35 15,8 C 13,0 C 15,8 C 19,2 C 19,2 C 3,4 C 61 % 62 % 89 % 1018,7 hPa 0,0 l/m 1,4 km/h (1 Bft) SO 135 5 min 1,2 UV-I 8,3 C 19,2 C 4,0 km/h (1 Bft)
20.04.2011 10:40 16,0 C 13,0 C 15,8 C 19,2 C 19,2 C 3,2 C 62 % 64 % 84 % 1018,7 hPa 0,0 l/m 1,9 km/h (1 Bft) S 180 0 min 1,2 UV-I 8,7 C 19,2 C 3,9 km/h (1 Bft)
20.04.2011 10:45 16,3 C 13,1 C 16,0 C 19,4 C 19,4 C 3,1 C 61 % 63 % 82 % 1018,7 hPa 0,0 l/m 1,9 km/h (1 Bft) N-NW 337 0 min 1,3 UV-I 8,8 C 19,4 C 0,0 km/h (0 Bft)
20.04.2011 10:50 16,6 C 13,0 C 16,3 C 19,4 C 19,4 C 2,8 C 61 % 63 % 74 % 1018,7 hPa 0,0 l/m 1,8 km/h (1 Bft) O-NO 67 0 min 1,3 UV-I 9,0 C 19,4 C 2,6 km/h (1 Bft)
20.04.2011 10:55 16,9 C 13,0 C 16,4 C 19,2 C 19,2 C 2,3 C 59 % 62 % 61 % 1018,8 hPa 0,0 l/m 1,9 km/h (1 Bft) NO 45 0 min 1,2 UV-I 8,8 C 19,2 C 5,6 km/h (1 Bft)
20.04.2011 11:00 16,9 C 13,1 C 16,7 C 19,2 C 19,2 C 2,3 C 59 % 62 % 61 % 1018,8 hPa 0,0 l/m 2,1 km/h (1 Bft) O-SO 112 0 min 1,2 UV-I 8,8 C 19,2 C 2,3 km/h (1 Bft)
20.04.2011 11:10 17,3 C 13,1 C 16,6 C 19,7 C 19,7 C 2,4 C 59 % 63 % 63 % 1018,8 hPa 0,0 l/m 1,6 km/h (1 Bft) N 0 0 min 1,3 UV-I 9,2 C 19,7 C 2,4 km/h (1 Bft)
20.04.2011 11:15 17,4 C 13,2 C 16,9 C 20,3 C 20,3 C 2,9 C 59 % 63 % 76 % 1018,7 hPa 0,0 l/m 2,1 km/h (1 Bft) NO 45 0 min 1,4 UV-I 9,3 C 20,3 C 2,4 km/h (1 Bft)
20.04.2011 11:20 17,5 C 13,2 C 16,9 C 20,5 C 20,5 C 3,0 C 59 % 63 % 79 % 1018,7 hPa 0,0 l/m 2,3 km/h (1 Bft) SW 225 0 min 1,4 UV-I 9,4 C 20,5 C 5,3 km/h (1 Bft)
20.04.2011 11:25 17,7 C 13,2 C 17,1 C 20,7 C 20,7 C 3,0 C 58 % 63 % 79 % 1018,7 hPa 0,0 l/m 2,1 km/h (1 Bft) O-NO 67 0 min 1,5 UV-I 9,3 C 20,7 C 6,0 km/h (2 Bft)
20.04.2011 11:30 17,8 C 13,3 C 17,1 C 20,8 C 20,8 C 3,0 C 58 % 62 % 79 % 1018,7 hPa 0,0 l/m 1,8 km/h (1 Bft) NW 315 0 min 1,5 UV-I 9,4 C 20,8 C 4,3 km/h (1 Bft)
20.04.2011 11:35 18,0 C 13,2 C 17,2 C 21,1 C 21,1 C 3,1 C 58 % 62 % 82 % 1018,8 hPa 0,0 l/m 1,9 km/h (1 Bft) NO 45 0 min 1,6 UV-I 9,6 C 21,1 C 8,2 km/h (2 Bft)
20.04.2011 11:40 18,1 C 13,2 C 17,4 C 21,2 C 21,2 C 3,1 C 56 % 61 % 82 % 1018,8 hPa 0,0 l/m 2,3 km/h (1 Bft) NW 315 0 min 1,6 UV-I 9,2 C 21,2 C 1,8 km/h (1 Bft)
20.04.2011 11:45 18,3 C 13,3 C 18,1 C 21,4 C 21,4 C 3,1 C 54 % 59 % 82 % 1018,8 hPa 0,0 l/m 1,9 km/h (1 Bft) NW 315 0 min 1,6 UV-I 8,8 C 21,4 C 4,3 km/h (1 Bft)
20.04.2011 11:50 18,4 C 13,4 C 18,8 C 21,4 C 21,4 C 3,0 C 54 % 55 % 79 % 1018,8 hPa 0,0 l/m 2,1 km/h (1 Bft) O 90 0 min 1,6 UV-I 8,9 C 21,4 C 2,6 km/h (1 Bft)
20.04.2011 11:55 18,5 C 13,4 C 19,7 C 21,4 C 21,4 C 2,9 C 53 % 54 % 76 % 1018,1 hPa 0,0 l/m 2,6 km/h (1 Bft) O-SO 112 0 min 1,6 UV-I 8,7 C 21,4 C 0,0 km/h (0 Bft)
20.04.2011 12:00 18,5 C 13,3 C 20,3 C 21,3 C 21,3 C 2,8 C 51 % 49 % 74 % 1018,1 hPa 0,0 l/m 2,4 km/h (1 Bft) O-SO 112 0 min 1,6 UV-I 8,2 C 21,3 C 2,6 km/h (1 Bft)
20.04.2011 12:10 18,9 C 13,5 C 20,7 C 22,1 C 22,1 C 3,2 C 47 % 45 % 84 % 1018,1 hPa 0,0 l/m 4,2 km/h (1 Bft) N 0 0 min 1,6 UV-I 7,3 C 22,1 C 7,6 km/h (2 Bft)
20.04.2011 12:15 19,2 C 13,5 C 21,3 C 22,9 C 22,9 C 3,7 C 47 % 47 % 97 % 1018,4 hPa 0,0 l/m 4,8 km/h (1 Bft) N-NO 22 5 min 2,0 UV-I 7,6 C 22,9 C 12,7 km/h (3 Bft)
20.04.2011 12:20 19,3 C 13,5 C 21,4 C 23,0 C 23,0 C 3,7 C 46 % 44 % 97 % 1018,4 hPa 0,0 l/m 6,6 km/h (2 Bft) NO 45 5 min 2,0 UV-I 7,4 C 23,0 C 5,8 km/h (2 Bft)
20.04.2011 12:25 19,5 C 13,6 C 21,4 C 23,2 C 23,2 C 3,7 C 45 % 44 % 97 % 1018,4 hPa 0,0 l/m 6,9 km/h (2 Bft) O 90 5 min 2,4 UV-I 7,2 C 23,2 C 17,1 km/h (3 Bft)
20.04.2011 12:30 19,7 C 13,6 C 21,3 C 23,1 C 23,1 C 3,4 C 44 % 43 % 89 % 1018,4 hPa 0,0 l/m 6,8 km/h (2 Bft) O-NO 67 5 min 2,4 UV-I 7,1 C 23,1 C 5,3 km/h (1 Bft)
20.04.2011 12:35 19,7 C 13,7 C 21,2 C 23,0 C 23,0 C 3,3 C 44 % 44 % 87 % 1017,9 hPa 0,0 l/m 8,0 km/h (2 Bft) NO 45 5 min 2,5 UV-I 7,1 C 23,0 C 11,3 km/h (2 Bft)
20.04.2011 12:40 19,8 C 13,7 C 21,3 C 23,1 C 23,1 C 3,3 C 44 % 44 % 87 % 1017,9 hPa 0,0 l/m 7,2 km/h (2 Bft) O-NO 67 5 min 2,5 UV-I 7,2 C 23,1 C 7,4 km/h (2 Bft)
20.04.2011 12:45 19,9 C 13,7 C 21,4 C 23,1 C 23,1 C 3,2 C 43 % 43 % 84 % 1017,9 hPa 0,0 l/m 8,0 km/h (2 Bft) O-NO 67 0 min 2,6 UV-I 6,9 C 23,1 C 10,8 km/h (2 Bft)
20.04.2011 12:50 19,8 C 13,8 C 21,3 C 23,0 C 23,0 C 3,2 C 43 % 42 % 84 % 1017,9 hPa 0,0 l/m 8,9 km/h (2 Bft) NO 45 0 min 2,6 UV-I 6,9 C 23,0 C 12,2 km/h (2 Bft)
20.04.2011 12:55 20,0 C 13,8 C 21,4 C 23,2 C 23,2 C 3,2 C 43 % 42 % 84 % 1018,2 hPa 0,0 l/m 7,6 km/h (2 Bft) O-NO 67 0 min 2,6 UV-I 7,0 C 23,2 C 2,1 km/h (1 Bft)
20.04.2011 13:00 20,0 C 13,9 C 21,7 C 23,6 C 23,6 C 3,6 C 43 % 41 % 95 % 1018,2 hPa 0,0 l/m 6,3 km/h (2 Bft) O-NO 67 5 min 2,6 UV-I 7,0 C 23,6 C 3,1 km/h (1 Bft)
20.04.2011 13:10 20,2 C 14,0 C 22,5 C 24,1 C 24,1 C 3,9 C 42 % 40 % 100 % 1018,2 hPa 0,0 l/m 5,3 km/h (1 Bft) N 0 10 min 2,6 UV-I 6,9 C 24,1 C 7,4 km/h (2 Bft)
20.04.2011 13:15 20,3 C 14,1 C 22,6 C 24,3 C 24,3 C 4,0 C 43 % 39 % 100 % 1017,9 hPa 0,0 l/m 5,3 km/h (1 Bft) O-NO 67 5 min 2,7 UV-I 7,3 C 24,3 C 9,5 km/h (2 Bft)
20.04.2011 13:20 20,3 C 14,1 C 22,8 C 24,1 C 24,1 C 3,8 C 41 % 39 % 100 % 1017,9 hPa 0,0 l/m 6,1 km/h (2 Bft) NO 45 5 min 2,7 UV-I 6,6 C 24,1 C 10,1 km/h (2 Bft)
20.04.2011 13:25 20,2 C 14,1 C 22,4 C 24,1 C 24,1 C 3,9 C 41 % 39 % 100 % 1017,9 hPa 0,0 l/m 6,9 km/h (2 Bft) O-NO 67 5 min 2,6 UV-I 6,5 C 24,1 C 4,2 km/h (1 Bft)
20.04.2011 13:30 20,1 C 14,2 C 22,5 C 23,9 C 23,9 C 3,8 C 42 % 40 % 100 % 1017,9 hPa 0,0 l/m 6,6 km/h (2 Bft) O-NO 67 5 min 2,6 UV-I 6,8 C 23,9 C 7,2 km/h (2 Bft)
20.04.2011 13:35 20,4 C 14,2 C 22,4 C 23,7 C 23,7 C 3,3 C 42 % 40 % 87 % 1017,8 hPa 0,0 l/m 7,6 km/h (2 Bft) O-NO 67 5 min 2,5 UV-I 7,1 C 23,7 C 11,3 km/h (2 Bft)
20.04.2011 13:40 20,5 C 14,3 C 22,7 C 23,7 C 23,7 C 3,2 C 43 % 41 % 84 % 1017,8 hPa 0,0 l/m 7,7 km/h (2 Bft) NO 45 0 min 2,5 UV-I 7,5 C 23,7 C 10,3 km/h (2 Bft)
20.04.2011 13:45 20,6 C 14,3 C 22,9 C 24,1 C 24,1 C 3,5 C 42 % 41 % 92 % 1017,8 hPa 0,0 l/m 6,0 km/h (2 Bft) O 90 5 min 2,5 UV-I 7,2 C 24,1 C 17,2 km/h (3 Bft)
20.04.2011 13:50 20,6 C 14,3 C 23,1 C 24,6 C 24,6 C 4,0 C 42 % 40 % 100 % 1017,8 hPa 0,0 l/m 5,8 km/h (2 Bft) NO 45 5 min 2,5 UV-I 7,2 C 24,6 C 7,6 km/h (2 Bft)
20.04.2011 13:55 20,7 C 14,4 C 23,2 C 24,6 C 24,6 C 3,9 C 41 % 39 % 100 % 1017,7 hPa 0,0 l/m 5,3 km/h (1 Bft) N-NO 22 5 min 2,5 UV-I 7,0 C 24,6 C 6,4 km/h (2 Bft)
20.04.2011 14:00 20,7 C 14,4 C 23,2 C 24,8 C 24,8 C 4,1 C 42 % 39 % 100 % 1017,7 hPa 0,0 l/m 4,5 km/h (1 Bft) NO 45 5 min 2,5 UV-I 7,3 C 24,8 C 4,0 km/h (1 Bft)
20.04.2011 14:10 21,1 C 14,6 C 24,1 C 25,5 C 25,5 C 4,4 C 42 % 39 % 100 % 1017,7 hPa 0,0 l/m 4,7 km/h (1 Bft) N 0 10 min 2,5 UV-I 7,7 C 25,5 C 12,7 km/h (3 Bft)
20.04.2011 14:15 21,0 C 14,6 C 24,3 C 24,6 C 24,6 C 3,6 C 43 % 39 % 95 % 1017,5 hPa 0,0 l/m 6,3 km/h (2 Bft) S-SO 157 5 min 2,3 UV-I 7,9 C 24,6 C 1,9 km/h (1 Bft)
20.04.2011 14:20 21,0 C 14,6 C 24,3 C 24,7 C 24,7 C 3,7 C 42 % 38 % 97 % 1017,5 hPa 0,0 l/m 7,1 km/h (2 Bft) O-NO 67 5 min 2,3 UV-I 7,6 C 24,7 C 9,8 km/h (2 Bft)
20.04.2011 14:25 21,3 C 14,7 C 24,6 C 24,7 C 24,7 C 3,4 C 41 % 37 % 89 % 1017,5 hPa 0,0 l/m 6,1 km/h (2 Bft) O-NO 67 5 min 2,3 UV-I 7,5 C 24,7 C 3,9 km/h (1 Bft)
20.04.2011 14:30 21,1 C 14,7 C 24,7 C 24,7 C 24,7 C 3,6 C 42 % 38 % 95 % 1017,5 hPa 0,0 l/m 6,4 km/h (2 Bft) O-NO 67 5 min 2,3 UV-I 7,7 C 24,7 C 6,4 km/h (2 Bft)
20.04.2011 14:35 21,3 C 14,8 C 24,9 C 24,7 C 24,7 C 3,4 C 41 % 36 % 89 % 1017,4 hPa 0,0 l/m 6,1 km/h (2 Bft) NO 45 5 min 2,2 UV-I 7,5 C 24,7 C 10,8 km/h (2 Bft)
20.04.2011 14:40 21,2 C 14,8 C 24,8 C 24,8 C 24,8 C 3,6 C 41 % 36 % 95 % 1017,4 hPa 0,0 l/m 5,1 km/h (1 Bft) O-NO 67 5 min 2,2 UV-I 7,4 C 24,8 C 4,0 km/h (1 Bft)
20.04.2011 14:45 21,3 C 14,9 C 25,3 C 25,6 C 25,6 C 4,3 C 42 % 35 % 100 % 1017,4 hPa 0,0 l/m 3,9 km/h (1 Bft) O-NO 67 5 min 2,2 UV-I 7,9 C 25,6 C 3,9 km/h (1 Bft)
20.04.2011 14:50 21,3 C 14,9 C 25,3 C 26,1 C 26,1 C 4,8 C 42 % 36 % 100 % 1017,4 hPa 0,0 l/m 2,9 km/h (1 Bft) O-NO 67 5 min 2,2 UV-I 7,9 C 26,1 C 3,9 km/h (1 Bft)
20.04.2011 14:55 21,5 C 15,0 C 25,3 C 26,2 C 26,2 C 4,7 C 42 % 39 % 100 % 1017,4 hPa 0,0 l/m 3,1 km/h (1 Bft) S-SW 202 5 min 1,9 UV-I 8,0 C 26,2 C 1,9 km/h (1 Bft)
20.04.2011 15:00 21,4 C 15,0 C 25,5 C 26,2 C 26,2 C 4,8 C 42 % 37 % 100 % 1017,4 hPa 0,0 l/m 4,2 km/h (1 Bft) NW 315 5 min 1,9 UV-I 8,0 C 26,2 C 4,7 km/h (1 Bft)
20.04.2011 15:10 21,5 C 15,0 C 25,3 C 25,8 C 25,8 C 4,3 C 41 % 35 % 100 % 1017,4 hPa 0,0 l/m 4,5 km/h (1 Bft) N 0 10 min 1,9 UV-I 7,7 C 25,8 C 4,0 km/h (1 Bft)
20.04.2011 15:15 21,6 C 15,1 C 25,5 C 26,1 C 26,1 C 4,5 C 41 % 36 % 100 % 1017,3 hPa 0,0 l/m 4,2 km/h (1 Bft) NW 315 5 min 1,8 UV-I 7,8 C 26,1 C 5,3 km/h (1 Bft)
20.04.2011 15:20 21,7 C 15,1 C 25,7 C 26,1 C 26,1 C 4,4 C 41 % 36 % 100 % 1017,3 hPa 0,0 l/m 4,0 km/h (1 Bft) O-NO 67 5 min 1,8 UV-I 7,9 C 26,1 C 7,1 km/h (2 Bft)
20.04.2011 15:25 21,6 C 15,1 C 25,4 C 25,9 C 25,9 C 4,3 C 41 % 36 % 100 % 1017,3 hPa 0,0 l/m 4,5 km/h (1 Bft) O-SO 112 5 min 1,6 UV-I 7,8 C 25,9 C 3,1 km/h (1 Bft)
20.04.2011 15:30 21,7 C 15,2 C 25,7 C 26,3 C 26,3 C 4,6 C 42 % 38 % 100 % 1017,3 hPa 0,0 l/m 3,7 km/h (1 Bft) NW 315 5 min 1,6 UV-I 8,2 C 26,3 C 3,2 km/h (1 Bft)
20.04.2011 15:35 21,9 C 15,2 C 25,7 C 26,7 C 26,7 C 4,8 C 42 % 37 % 100 % 1017,0 hPa 0,0 l/m 3,2 km/h (1 Bft) NO 45 5 min 1,6 UV-I 8,4 C 26,7 C 6,1 km/h (2 Bft)
20.04.2011 15:40 22,0 C 15,3 C 25,4 C 26,5 C 26,5 C 4,5 C 43 % 38 % 100 % 1017,0 hPa 0,0 l/m 3,7 km/h (1 Bft) NO 45 5 min 1,6 UV-I 8,8 C 26,5 C 4,3 km/h (1 Bft)
20.04.2011 15:45 21,9 C 15,3 C 25,3 C 26,6 C 26,6 C 4,7 C 41 % 37 % 100 % 1017,0 hPa 0,0 l/m 3,5 km/h (1 Bft) O-NO 67 5 min 1,5 UV-I 8,0 C 26,6 C 2,3 km/h (1 Bft)
20.04.2011 15:50 21,8 C 15,4 C 25,3 C 26,7 C 26,7 C 4,9 C 41 % 37 % 100 % 1017,0 hPa 0,0 l/m 3,2 km/h (1 Bft) O-NO 67 5 min 1,5 UV-I 8,0 C 26,7 C 4,8 km/h (1 Bft)
20.04.2011 15:55 21,9 C 15,5 C 25,2 C 26,5 C 26,5 C 4,6 C 42 % 38 % 100 % 1016,8 hPa 0,0 l/m 3,1 km/h (1 Bft) O 90 5 min 1,4 UV-I 8,4 C 26,5 C 4,8 km/h (1 Bft)
20.04.2011 16:00 21,8 C 15,6 C 24,9 C 26,3 C 26,3 C 4,5 C 43 % 39 % 100 % 1016,8 hPa 0,0 l/m 3,2 km/h (1 Bft) NO 45 5 min 1,4 UV-I 8,7 C 26,3 C 3,2 km/h (1 Bft)
20.04.2011 16:10 21,9 C 15,7 C 24,7 C 26,5 C 26,5 C 4,6 C 42 % 38 % 100 % 1016,8 hPa 0,0 l/m 3,5 km/h (1 Bft) N 0 10 min 1,2 UV-I 8,4 C 26,5 C 6,9 km/h (2 Bft)
20.04.2011 16:15 21,8 C 15,7 C 24,2 C 26,1 C 26,1 C 4,3 C 43 % 39 % 100 % 1016,8 hPa 0,0 l/m 3,9 km/h (1 Bft) NO 45 5 min 1,1 UV-I 8,7 C 26,1 C 4,0 km/h (1 Bft)
20.04.2011 16:20 21,8 C 15,7 C 24,0 C 25,8 C 25,8 C 4,0 C 42 % 39 % 100 % 1016,8 hPa 0,0 l/m 4,7 km/h (1 Bft) O-NO 67 5 min 1,1 UV-I 8,3 C 25,8 C 7,2 km/h (2 Bft)
20.04.2011 16:25 21,7 C 15,8 C 23,5 C 25,0 C 25,0 C 3,3 C 43 % 41 % 87 % 1016,8 hPa 0,0 l/m 5,5 km/h (1 Bft) O-NO 67 5 min 0,9 UV-I 8,6 C 25,0 C 3,1 km/h (1 Bft)
20.04.2011 16:30 21,8 C 15,8 C 23,5 C 24,9 C 24,9 C 3,1 C 43 % 42 % 82 % 1016,8 hPa 0,0 l/m 5,3 km/h (1 Bft) O-NO 67 0 min 0,9 UV-I 8,7 C 24,9 C 3,4 km/h (1 Bft)
20.04.2011 16:35 21,8 C 15,9 C 23,3 C 25,0 C 25,0 C 3,2 C 43 % 42 % 84 % 1016,6 hPa 0,0 l/m 4,5 km/h (1 Bft) O-NO 67 0 min 0,9 UV-I 8,7 C 25,0 C 7,6 km/h (2 Bft)
20.04.2011 16:40 21,9 C 15,9 C 23,1 C 24,9 C 24,9 C 3,0 C 43 % 43 % 79 % 1016,6 hPa 0,0 l/m 5,0 km/h (1 Bft) O 90 0 min 0,9 UV-I 8,7 C 24,9 C 4,0 km/h (1 Bft)
20.04.2011 16:45 22,0 C 16,0 C 23,2 C 25,4 C 25,4 C 3,4 C 44 % 43 % 89 % 1016,6 hPa 0,0 l/m 3,7 km/h (1 Bft) N-NO 22 5 min 0,8 UV-I 9,2 C 25,4 C 4,5 km/h (1 Bft)
20.04.2011 16:50 22,1 C 16,0 C 23,3 C 25,7 C 25,7 C 3,6 C 43 % 44 % 95 % 1016,6 hPa 0,0 l/m 3,5 km/h (1 Bft) O-NO 67 5 min 0,8 UV-I 8,9 C 25,7 C 8,2 km/h (2 Bft)
20.04.2011 16:55 22,0 C 16,0 C 22,9 C 25,2 C 25,2 C 3,2 C 43 % 42 % 84 % 1016,4 hPa 0,0 l/m 4,7 km/h (1 Bft) O-NO 67 0 min 0,7 UV-I 8,8 C 25,2 C 3,9 km/h (1 Bft)
20.04.2011 17:00 21,9 C 16,0 C 22,8 C 25,2 C 25,2 C 3,3 C 43 % 42 % 87 % 1016,4 hPa 0,0 l/m 4,0 km/h (1 Bft) O-NO 67 5 min 0,7 UV-I 8,7 C 25,2 C 2,4 km/h (1 Bft)
20.04.2011 17:10 22,0 C 16,1 C 22,8 C 25,8 C 25,8 C 3,8 C 44 % 43 % 100 % 1016,4 hPa 0,0 l/m 2,4 km/h (1 Bft) N 0 10 min 0,5 UV-I 9,2 C 25,8 C 4,5 km/h (1 Bft)
20.04.2011 17:15 22,0 C 16,1 C 22,6 C 25,8 C 25,8 C 3,8 C 43 % 43 % 100 % 1016,5 hPa 0,0 l/m 2,6 km/h (1 Bft) N-NO 22 5 min 0,5 UV-I 8,8 C 25,8 C 4,8 km/h (1 Bft)
20.04.2011 17:20 22,0 C 16,1 C 22,6 C 25,7 C 25,7 C 3,7 C 45 % 45 % 97 % 1016,5 hPa 0,0 l/m 3,2 km/h (1 Bft) N-NO 22 5 min 0,5 UV-I 9,5 C 25,7 C 3,1 km/h (1 Bft)
20.04.2011 17:25 22,1 C 16,2 C 22,7 C 25,7 C 25,7 C 3,6 C 45 % 45 % 95 % 1016,5 hPa 0,0 l/m 2,7 km/h (1 Bft) NO 45 5 min 0,4 UV-I 9,6 C 25,7 C 0,0 km/h (0 Bft)
20.04.2011 17:30 22,1 C 16,2 C 22,5 C 25,8 C 25,8 C 3,7 C 45 % 45 % 97 % 1016,5 hPa 0,0 l/m 2,1 km/h (1 Bft) O-NO 67 5 min 0,4 UV-I 9,6 C 25,8 C 2,4 km/h (1 Bft)
20.04.2011 17:35 22,1 C 16,2 C 22,3 C 25,6 C 25,6 C 3,5 C 45 % 45 % 92 % 1016,2 hPa 0,0 l/m 2,1 km/h (1 Bft) NW 315 5 min 0,4 UV-I 9,6 C 25,6 C 2,9 km/h (1 Bft)
20.04.2011 17:40 22,1 C 16,2 C 22,4 C 25,4 C 25,4 C 3,3 C 45 % 46 % 87 % 1016,2 hPa 0,0 l/m 2,6 km/h (1 Bft) O-NO 67 5 min 0,4 UV-I 9,6 C 25,4 C 1,9 km/h (1 Bft)
20.04.2011 17:45 22,1 C 16,3 C 22,3 C 25,2 C 25,2 C 3,1 C 45 % 46 % 82 % 1016,2 hPa 0,0 l/m 2,7 km/h (1 Bft) O-SO 112 0 min 0,3 UV-I 9,6 C 25,2 C 4,5 km/h (1 Bft)
20.04.2011 17:50 21,9 C 16,3 C 22,0 C 24,9 C 24,9 C 3,0 C 45 % 46 % 79 % 1016,2 hPa 0,0 l/m 3,1 km/h (1 Bft) O-NO 67 0 min 0,3 UV-I 9,4 C 24,9 C 4,3 km/h (1 Bft)
20.04.2011 17:55 21,8 C 16,4 C 21,7 C 24,5 C 24,5 C 2,7 C 46 % 46 % 71 % 1016,1 hPa 0,0 l/m 3,4 km/h (1 Bft) O-SO 112 0 min 0,2 UV-I 9,7 C 24,5 C 1,8 km/h (1 Bft)
20.04.2011 18:00 21,9 C 16,4 C 21,7 C 24,4 C 24,4 C 2,5 C 46 % 48 % 66 % 1016,1 hPa 0,0 l/m 3,2 km/h (1 Bft) S-SW 202 0 min 0,2 UV-I 9,7 C 24,4 C 7,6 km/h (2 Bft)
20.04.2011 18:10 21,7 C 16,4 C 21,7 C 24,4 C 24,4 C 2,7 C 46 % 48 % 71 % 1016,1 hPa 0,0 l/m 2,7 km/h (1 Bft) N 0 0 min 0,2 UV-I 9,6 C 24,4 C 4,3 km/h (1 Bft)
20.04.2011 18:15 21,6 C 16,4 C 21,7 C 24,1 C 24,1 C 2,5 C 46 % 49 % 66 % 1016,0 hPa 0,0 l/m 2,9 km/h (1 Bft) N-NW 337 0 min 0,1 UV-I 9,5 C 24,1 C 4,8 km/h (1 Bft)
20.04.2011 18:20 21,6 C 16,4 C 21,5 C 24,0 C 24,0 C 2,4 C 47 % 48 % 63 % 1016,0 hPa 0,0 l/m 2,9 km/h (1 Bft) NO 45 0 min 0,1 UV-I 9,8 C 24,0 C 4,5 km/h (1 Bft)
20.04.2011 18:25 21,5 C 16,5 C 21,2 C 23,6 C 23,6 C 2,1 C 47 % 48 % 55 % 1016,0 hPa 0,0 l/m 2,6 km/h (1 Bft) SO 135 0 min 0,1 UV-I 9,7 C 23,6 C 3,1 km/h (1 Bft)
20.04.2011 18:30 21,5 C 16,5 C 21,0 C 23,5 C 23,5 C 2,0 C 47 % 49 % 53 % 1016,0 hPa 0,0 l/m 2,3 km/h (1 Bft) N-NO 22 0 min 0,1 UV-I 9,7 C 23,5 C 1,8 km/h (1 Bft)
20.04.2011 18:35 21,3 C 16,5 C 20,8 C 23,2 C 23,2 C 1,9 C 48 % 49 % 50 % 1016,3 hPa 0,0 l/m 2,4 km/h (1 Bft) N-NW 337 0 min 0,1 UV-I 9,8 C 23,2 C 2,7 km/h (1 Bft)
20.04.2011 18:40 21,3 C 16,5 C 20,8 C 22,8 C 22,8 C 1,5 C 48 % 50 % 39 % 1016,3 hPa 0,0 l/m 2,3 km/h (1 Bft) NO 45 0 min 0,1 UV-I 9,8 C 22,8 C 1,6 km/h (1 Bft)
20.04.2011 18:45 21,0 C 16,5 C 20,7 C 22,6 C 22,6 C 1,6 C 49 % 51 % 42 % 1016,3 hPa 0,0 l/m 1,6 km/h (1 Bft) NO 45 0 min 0,0 UV-I 9,9 C 22,6 C 2,1 km/h (1 Bft)
20.04.2011 18:50 20,9 C 16,5 C 20,6 C 22,4 C 22,4 C 1,5 C 49 % 51 % 39 % 1016,3 hPa 0,0 l/m 1,4 km/h (1 Bft) O-NO 67 0 min 0,0 UV-I 9,8 C 22,4 C 2,1 km/h (1 Bft)
20.04.2011 18:55 20,8 C 16,5 C 20,5 C 22,2 C 22,2 C 1,4 C 49 % 52 % 37 % 1016,3 hPa 0,0 l/m 1,8 km/h (1 Bft) O-NO 67 0 min 0,0 UV-I 9,7 C 22,2 C 2,1 km/h (1 Bft)
20.04.2011 19:00 20,7 C 16,5 C 20,5 C 22,0 C 22,0 C 1,3 C 49 % 51 % 34 % 1016,3 hPa 0,0 l/m 1,9 km/h (1 Bft) NO 45 0 min 0,0 UV-I 9,6 C 22,0 C 3,7 km/h (1 Bft)
20.04.2011 19:10 20,4 C 16,5 C 20,1 C 21,3 C 21,3 C 0,9 C 49 % 51 % 24 % 1016,3 hPa 0,0 l/m 1,8 km/h (1 Bft) N 0 0 min 0,0 UV-I 9,3 C 21,3 C 0,0 km/h (0 Bft)
20.04.2011 19:15 20,2 C 16,5 C 19,7 C 20,8 C 20,8 C 0,6 C 50 % 52 % 16 % 1016,1 hPa 0,0 l/m 1,3 km/h (1 Bft) NO 45 0 min 0,0 UV-I 9,4 C 20,8 C 0,0 km/h (0 Bft)
20.04.2011 19:20 20,0 C 16,5 C 19,6 C 20,5 C 20,5 C 0,5 C 51 % 53 % 13 % 1016,1 hPa 0,0 l/m 1,0 km/h (0 Bft) O-NO 67 0 min 0,0 UV-I 9,6 C 20,5 C 1,6 km/h (1 Bft)
20.04.2011 19:25 19,9 C 16,6 C 19,3 C 20,1 C 20,1 C 0,2 C 51 % 55 % 5 % 1016,1 hPa 0,0 l/m 0,6 km/h (0 Bft) N-NO 22 0 min 0,0 UV-I 9,5 C 20,1 C 1,6 km/h (1 Bft)
20.04.2011 19:30 19,7 C 16,6 C 19,2 C 19,9 C 19,9 C 0,2 C 51 % 55 % 5 % 1016,1 hPa 0,0 l/m 0,5 km/h (0 Bft) N-NO 22 0 min 0,0 UV-I 9,3 C 19,9 C 0,0 km/h (0 Bft)
20.04.2011 19:35 19,6 C 16,6 C 18,7 C 19,6 C 19,5 C 0,0 C 52 % 56 % 0 % 1016,0 hPa 0,0 l/m 0,2 km/h (0 Bft) N-NW 337 0 min 0,0 UV-I 9,5 C 19,5 C 1,6 km/h (1 Bft)
20.04.2011 19:40 19,5 C 16,6 C 18,4 C 19,4 C 19,3 C 0,0 C 52 % 56 % 0 % 1016,0 hPa 0,0 l/m 0,2 km/h (0 Bft) N-NW 337 0 min 0,0 UV-I 9,4 C 19,3 C 0,0 km/h (0 Bft)
20.04.2011 19:45 19,2 C 16,6 C 18,0 C 19,1 C 18,8 C 0,0 C 53 % 58 % 0 % 1016,0 hPa 0,0 l/m 0,3 km/h (0 Bft) NO 45 0 min 0,0 UV-I 9,4 C 18,8 C 0,0 km/h (0 Bft)
20.04.2011 19:50 18,9 C 16,6 C 17,8 C 18,8 C 18,5 C 0,0 C 54 % 58 % 0 % 1016,0 hPa 0,0 l/m 0,3 km/h (0 Bft) N-NO 22 0 min 0,0 UV-I 9,4 C 18,5 C 0,0 km/h (0 Bft)
20.04.2011 19:55 18,7 C 16,6 C 17,6 C 18,4 C 17,8 C 0,0 C 54 % 58 % 0 % 1016,2 hPa 0,0 l/m 0,3 km/h (0 Bft) O-NO 67 0 min 0,0 UV-I 9,2 C 17,8 C 1,9 km/h (1 Bft)
20.04.2011 20:00 18,5 C 16,6 C 17,5 C 18,1 C 17,4 C 0,0 C 55 % 59 % 0 % 1016,2 hPa 0,0 l/m 0,3 km/h (0 Bft) O-NO 67 0 min 0,0 UV-I 9,3 C 17,4 C 0,0 km/h (0 Bft)
20.04.2011 20:10 18,1 C 16,6 C 16,9 C 17,6 C 16,5 C 0,0 C 56 % 61 % 0 % 1016,2 hPa 0,0 l/m 0,2 km/h (0 Bft) N 0 0 min 0,0 UV-I 9,2 C 16,5 C 0,0 km/h (0 Bft)
20.04.2011 20:15 18,0 C 16,6 C 16,7 C 17,3 C 16,0 C 0,0 C 57 % 62 % 0 % 1016,3 hPa 0,0 l/m 0,3 km/h (0 Bft) O-NO 67 0 min 0,0 UV-I 9,4 C 16,0 C 0,0 km/h (0 Bft)
20.04.2011 20:20 17,7 C 16,6 C 16,5 C 17,1 C 15,8 C 0,0 C 58 % 62 % 0 % 1016,3 hPa 0,0 l/m 0,3 km/h (0 Bft) O-NO 67 0 min 0,0 UV-I 9,3 C 15,8 C 0,0 km/h (0 Bft)
20.04.2011 20:25 17,6 C 16,6 C 16,3 C 16,9 C 15,5 C 0,0 C 58 % 63 % 0 % 1016,3 hPa 0,0 l/m 0,5 km/h (0 Bft) O-NO 67 0 min 0,0 UV-I 9,2 C 15,5 C 1,8 km/h (1 Bft)
20.04.2011 20:30 17,5 C 16,6 C 16,0 C 16,8 C 15,3 C 0,0 C 59 % 64 % 0 % 1016,3 hPa 0,0 l/m 1,0 km/h (0 Bft) NO 45 0 min 0,0 UV-I 9,4 C 15,3 C 1,6 km/h (1 Bft)
20.04.2011 20:35 17,2 C 16,7 C 15,9 C 16,5 C 15,1 C 0,0 C 59 % 65 % 0 % 1016,4 hPa 0,0 l/m 0,8 km/h (0 Bft) O-NO 67 0 min 0,0 UV-I 9,1 C 15,1 C 0,0 km/h (0 Bft)
20.04.2011 20:40 17,1 C 16,7 C 15,6 C 16,4 C 15,0 C 0,0 C 60 % 65 % 0 % 1016,4 hPa 0,0 l/m 0,5 km/h (0 Bft) NO 45 0 min 0,0 UV-I 9,3 C 15,0 C 1,9 km/h (1 Bft)
20.04.2011 20:45 16,9 C 16,6 C 15,5 C 16,2 C 14,9 C 0,0 C 61 % 66 % 0 % 1016,4 hPa 0,0 l/m 1,0 km/h (0 Bft) O-NO 67 0 min 0,0 UV-I 9,3 C 14,9 C 1,9 km/h (1 Bft)
20.04.2011 20:50 16,7 C 16,6 C 15,4 C 16,0 C 14,7 C 0,0 C 61 % 66 % 0 % 1016,4 hPa 0,0 l/m 1,0 km/h (0 Bft) NO 45 0 min 0,0 UV-I 9,1 C 14,7 C 0,0 km/h (0 Bft)
20.04.2011 20:55 16,6 C 16,6 C 15,2 C 15,9 C 14,6 C 0,0 C 62 % 67 % 0 % 1016,6 hPa 0,0 l/m 0,5 km/h (0 Bft) O-NO 67 0 min 0,0 UV-I 9,3 C 14,6 C 0,0 km/h (0 Bft)
20.04.2011 21:00 16,5 C 16,6 C 15,1 C 15,8 C 14,5 C 0,0 C 62 % 67 % 0 % 1016,6 hPa 0,0 l/m 1,0 km/h (0 Bft) NO 45 0 min 0,0 UV-I 9,2 C 14,5 C 2,1 km/h (1 Bft)
20.04.2011 21:10 16,3 C 16,6 C 14,8 C 15,7 C 14,4 C 0,0 C 62 % 68 % 0 % 1016,6 hPa 0,0 l/m 1,1 km/h (1 Bft) N 0 0 min 0,0 UV-I 9,0 C 14,4 C 0,0 km/h (0 Bft)
20.04.2011 21:15 16,0 C 16,6 C 14,7 C 15,4 C 14,1 C 0,0 C 63 % 68 % 0 % 1016,6 hPa 0,0 l/m 0,3 km/h (0 Bft) NO 45 0 min 0,0 UV-I 9,0 C 14,1 C 0,0 km/h (0 Bft)
20.04.2011 21:20 15,9 C 16,6 C 14,5 C 15,2 C 13,9 C 0,0 C 63 % 69 % 0 % 1016,6 hPa 0,0 l/m 0,2 km/h (0 Bft) O-NO 67 0 min 0,0 UV-I 8,9 C 13,9 C 0,0 km/h (0 Bft)
20.04.2011 21:25 15,9 C 16,5 C 14,4 C 15,2 C 13,9 C 0,0 C 63 % 69 % 0 % 1016,6 hPa 0,0 l/m 0,5 km/h (0 Bft) O-NO 67 0 min 0,0 UV-I 8,9 C 13,9 C 1,6 km/h (1 Bft)
20.04.2011 21:30 15,7 C 16,5 C 14,3 C 15,0 C 13,7 C 0,0 C 64 % 69 % 0 % 1016,6 hPa 0,0 l/m 0,6 km/h (0 Bft) NO 45 0 min 0,0 UV-I 8,9 C 13,7 C 0,0 km/h (0 Bft)
20.04.2011 21:35 15,6 C 16,5 C 14,0 C 14,9 C 13,5 C 0,0 C 64 % 69 % 0 % 1016,4 hPa 0,0 l/m 0,2 km/h (0 Bft) NO 45 0 min 0,0 UV-I 8,8 C 13,5 C 0,0 km/h (0 Bft)
20.04.2011 21:40 15,5 C 16,5 C 14,1 C 14,8 C 13,4 C 0,0 C 64 % 70 % 0 % 1016,4 hPa 0,0 l/m 0,0 km/h (0 Bft) O-NO 67 0 min 0,0 UV-I 8,7 C 13,4 C 0,0 km/h (0 Bft)
20.04.2011 21:45 15,3 C 16,5 C 13,5 C 14,5 C 13,0 C 0,0 C 66 % 73 % 0 % 1016,4 hPa 0,0 l/m 0,0 km/h (0 Bft) W-SW 247 0 min 0,0 UV-I 9,0 C 13,0 C 0,0 km/h (0 Bft)
20.04.2011 21:50 15,3 C 16,5 C 13,4 C 14,4 C 12,6 C 0,0 C 67 % 73 % 0 % 1016,4 hPa 0,0 l/m 0,0 km/h (0 Bft) SW 225 0 min 0,0 UV-I 9,2 C 12,6 C 0,0 km/h (0 Bft)
20.04.2011 21:55 15,1 C 16,6 C 13,2 C 14,1 C 12,1 C 0,0 C 68 % 75 % 0 % 1016,8 hPa 0,0 l/m 0,0 km/h (0 Bft) W-SW 247 0 min 0,0 UV-I 9,2 C 12,1 C 0,0 km/h (0 Bft)
20.04.2011 22:00 14,9 C 16,6 C 13,1 C 13,8 C 11,7 C 0,0 C 68 % 75 % 0 % 1016,8 hPa 0,0 l/m 0,0 km/h (0 Bft) W 270 0 min 0,0 UV-I 9,0 C 11,7 C 0,0 km/h (0 Bft)
20.04.2011 22:10 14,5 C 16,6 C 12,7 C 13,4 C 11,3 C 0,0 C 69 % 75 % 0 % 1016,8 hPa 0,0 l/m 0,0 km/h (0 Bft) N 0 0 min 0,0 UV-I 8,9 C 11,3 C 0,0 km/h (0 Bft)
20.04.2011 22:15 14,1 C 16,6 C 12,5 C 13,1 C 11,0 C 0,0 C 70 % 76 % 0 % 1016,4 hPa 0,0 l/m 0,0 km/h (0 Bft) N-NW 337 0 min 0,0 UV-I 8,7 C 11,0 C 0,0 km/h (0 Bft)
20.04.2011 22:20 14,1 C 16,6 C 12,4 C 13,0 C 10,8 C 0,0 C 71 % 77 % 0 % 1016,4 hPa 0,0 l/m 0,0 km/h (0 Bft) W 270 0 min 0,0 UV-I 8,9 C 10,8 C 0,0 km/h (0 Bft)
20.04.2011 22:25 14,0 C 16,5 C 12,2 C 12,8 C 10,3 C 0,0 C 71 % 77 % 0 % 1016,4 hPa 0,0 l/m 0,0 km/h (0 Bft) W 270 0 min 0,0 UV-I 8,8 C 10,3 C 0,0 km/h (0 Bft)
20.04.2011 22:30 14,0 C 16,6 C 12,1 C 12,7 C 10,2 C 0,0 C 71 % 77 % 0 % 1016,4 hPa 0,0 l/m 0,0 km/h (0 Bft) W 270 0 min 0,0 UV-I 8,8 C 10,2 C 0,0 km/h (0 Bft)
20.04.2011 22:35 13,6 C 16,6 C 12,0 C 12,4 C 10,0 C 0,0 C 71 % 77 % 0 % 1016,5 hPa 0,0 l/m 0,0 km/h (0 Bft) W 270 0 min 0,0 UV-I 8,4 C 10,0 C 0,0 km/h (0 Bft)
20.04.2011 22:40 13,6 C 16,6 C 11,9 C 12,4 C 9,9 C 0,0 C 72 % 78 % 0 % 1016,5 hPa 0,0 l/m 0,0 km/h (0 Bft) W 270 0 min 0,0 UV-I 8,6 C 9,9 C 0,0 km/h (0 Bft)
20.04.2011 22:45 13,5 C 16,6 C 11,7 C 12,2 C 9,6 C 0,0 C 72 % 78 % 0 % 1016,5 hPa 0,0 l/m 0,0 km/h (0 Bft) W 270 0 min 0,0 UV-I 8,6 C 9,6 C 0,0 km/h (0 Bft)
20.04.2011 22:50 13,2 C 16,6 C 11,6 C 12,0 C 9,5 C 0,0 C 73 % 78 % 0 % 1016,5 hPa 0,0 l/m 0,0 km/h (0 Bft) W 270 0 min 0,0 UV-I 8,5 C 9,5 C 0,0 km/h (0 Bft)
20.04.2011 22:55 13,2 C 16,5 C 11,5 C 12,0 C 9,5 C 0,0 C 74 % 79 % 0 % 1016,6 hPa 0,0 l/m 0,0 km/h (0 Bft) W 270 0 min 0,0 UV-I 8,7 C 9,5 C 0,0 km/h (0 Bft)
20.04.2011 23:00 13,2 C 16,5 C 11,3 C 11,9 C 9,3 C 0,0 C 73 % 80 % 0 % 1016,6 hPa 0,0 l/m 0,0 km/h (0 Bft) SW 225 0 min 0,0 UV-I 8,5 C 9,3 C 0,0 km/h (0 Bft)
20.04.2011 23:10 12,9 C 16,5 C 11,1 C 11,6 C 9,0 C 0,0 C 74 % 80 % 0 % 1016,6 hPa 0,0 l/m 0,0 km/h (0 Bft) N 0 0 min 0,0 UV-I 8,4 C 9,0 C 0,0 km/h (0 Bft)
20.04.2011 23:15 12,9 C 16,5 C 10,8 C 11,6 C 8,9 C 0,0 C 74 % 81 % 0 % 1016,5 hPa 0,0 l/m 0,0 km/h (0 Bft) W 270 0 min 0,0 UV-I 8,4 C 8,9 C 0,0 km/h (0 Bft)
20.04.2011 23:20 12,8 C 16,5 C 10,8 C 11,4 C 8,7 C 0,0 C 74 % 81 % 0 % 1016,5 hPa 0,0 l/m 0,0 km/h (0 Bft) W 270 0 min 0,0 UV-I 8,3 C 8,7 C 0,0 km/h (0 Bft)
20.04.2011 23:25 12,6 C 16,5 C 10,7 C 11,3 C 8,7 C 0,0 C 74 % 81 % 0 % 1016,5 hPa 0,0 l/m 0,0 km/h (0 Bft) SW 225 0 min 0,0 UV-I 8,1 C 8,7 C 0,0 km/h (0 Bft)
20.04.2011 23:30 12,4 C 16,5 C 10,7 C 11,2 C 8,7 C 0,0 C 75 % 82 % 0 % 1016,5 hPa 0,0 l/m 0,0 km/h (0 Bft) S-SW 202 0 min 0,0 UV-I 8,1 C 8,7 C 0,0 km/h (0 Bft)
20.04.2011 23:35 12,4 C 16,4 C 10,5 C 11,1 C 8,6 C 0,0 C 75 % 82 % 0 % 1016,5 hPa 0,0 l/m 0,2 km/h (0 Bft) S-SW 202 0 min 0,0 UV-I 8,1 C 8,6 C 1,6 km/h (1 Bft)
20.04.2011 23:40 12,4 C 16,4 C 10,4 C 11,1 C 8,5 C 0,0 C 75 % 83 % 0 % 1016,5 hPa 0,0 l/m 0,2 km/h (0 Bft) S 180 0 min 0,0 UV-I 8,1 C 8,5 C 0,0 km/h (0 Bft)
20.04.2011 23:45 12,1 C 16,5 C 10,4 C 10,9 C 8,5 C 0,0 C 75 % 83 % 0 % 1016,5 hPa 0,0 l/m 0,2 km/h (0 Bft) O-SO 112 0 min 0,0 UV-I 7,8 C 8,5 C 0,0 km/h (0 Bft)
20.04.2011 23:50 11,9 C 16,5 C 10,3 C 10,7 C 8,4 C 0,0 C 76 % 82 % 0 % 1016,5 hPa 0,0 l/m 0,0 km/h (0 Bft) O-SO 112 0 min 0,0 UV-I 7,8 C 8,4 C 0,0 km/h (0 Bft)
20.04.2011 23:55 11,7 C 16,5 C 10,1 C 10,6 C 8,4 C 0,0 C 76 % 83 % 0 % 1016,8 hPa 0,0 l/m 0,0 km/h (0 Bft) O-SO 112 0 min 0,0 UV-I 7,6 C 8,4 C 0,0 km/h (0 Bft)
_ Min-Zeit 05:35 08:50 06:15 05:35 04:35 00:00 13:20 14:45 00:00 18:15 - 00:00 - - - 00:00 05:00 04:35 00:00
Minimum _ 6,5 C 12,9 C 5,1 C 5,6 C 3,6 C 0,0 C 41 % 35 % 0 % 1016,0 hPa - 0,0 km/h (0 Bft) - - - 0,0 UV-I 3,6 C 3,6 C 0,0 km/h (0 Bft)
_ Max-Zeit 16:50 20:35 15:20 15:35 15:35 09:00 06:30 07:20 08:25 08:55 00:00 12:50 - - 09:10 13:15 18:45 15:35 13:45
Maximum _ 22,1 C 16,7 C 25,7 C 26,7 C 26,7 C 7,2 C 83 % 89 % 100 % 1018,8 hPa 0,0 l/m 8,9 km/h
NO (2 Bft)
- - 10 min 2,7 UV-I 9,9 C 26,7 C 17,2 km/h
O (3 Bft)
Durchschnitt _ 14,9 C 14,9 C 14,1 C 16,1 C 15,0 C 1,7 C 62 % 67 % 40 % 1017,6 hPa #0,0 l/m 1,6 km/h (1 Bft) O-NO - #7:05 h 1,3 UV-I 7,2 C 15,0 C 2,2 km/h (1 Bft)
2013 www.wetterstation-wechselburg.de